Zurück zum Katalog

TITAN 3C TRANSTAGE DEB

LostHEO
NORAD 28815·DEBRIS·🇺🇸 United States

Gestartet Dec 21, 1965 von Cape Canaveral Space Force Station

Loading…

Nächste Überflüge (nächste 24 Stunden)

TLE

VeraltetSource: Space-Track

Epoche: Feb 2, 2023, 13:22 UTC

1 28815U 65108CC  23033.55759642  .00000123  00000-0  39195-2 0  9993
2 28815  25.8575 192.9442 6726573 227.1945  49.0706  2.60651140188519

Verfolge TITAN 3C TRANSTAGE DEB in Echtzeit mit AllMySat

Download on the App Store